EW4676 Weather Reports


Display with metric or nautical units.
time (UTC)temp
F
wind
direction
speed
MPH
gust
MPH
rain 1hr
in
rain 24hr
in
rain mn
in
humidity
%
barometer
mb
20260901081634 85 204 6.0 12.0 0.00 0.00 0.00 56 1015.6
20260901081628 85 155 5.0 12.0 0.00 0.00 0.00 56 1015.6
20260901081122 85 211 5.0 12.0 0.00 0.00 0.00 56 1015.6
20260901080733 85 186 5.0 12.0 0.00 0.00 0.00 55 1015.6
20260901075619 85 199 5.0 12.0 0.00 0.00 0.00 55 1015.6
20260901075122 85 169 6.0 15.0 0.00 0.00 0.00 54 1015.5
20260901075118 85 174 6.0 14.0 0.00 0.00 0.00 54 1015.6
20260901074115 85 138 5.0 15.0 0.00 0.00 0.00 53 1015.5
20260901074101 85 147 5.0 9.0 0.00 0.00 0.00 52 1015.5
20260901073704 85 143 6.0 10.0 0.00 0.00 0.00 52 1015.5
20260901072549 85 187 4.0 9.0 0.00 0.00 0.00 51 1015.5
20260901072039 86 145 5.0 9.0 0.00 0.00 0.00 51 1015.5
20260901071523 86 134 4.0 10.0 0.00 0.00 0.00 51 1015.4
20260901071504 86 153 4.0 9.0 0.00 0.00 0.00 50 1015.3
20260901071108 86 154 4.0 10.0 0.00 0.00 0.00 50 1015.3
20260901065952 86 150 4.0 9.0 0.00 0.00 0.00 50 1015.3
20260901065442 86 158 5.0 10.0 0.00 0.00 0.00 50 1015.3
20260901064932 86 170 5.0 10.0 0.00 0.00 0.00 49 1015.2
20260901064420 86 165 5.0 13.0 0.00 0.00 0.00 49 1015.1
20260901063910 86 153 5.0 13.0 0.00 0.00 0.00 49 1015.1
20260901063901 86 168 4.0 10.0 0.00 0.00 0.00 49 1015.1
20260901062850 86 131 4.0 9.0 0.00 0.00 0.00 49 1015.0
20260901062344 86 136 4.0 8.0 0.00 0.00 0.00 49 1015.1
20260901061835 86 141 3.0 7.0 0.00 0.00 0.00 48 1015.0
20260901061330 86 146 3.0 7.0 0.00 0.00 0.00 48 1015.0
20260901060822 86 120 3.0 9.0 0.00 0.00 0.00 48 1014.9
20260901060316 86 117 3.0 9.0 0.00 0.00 0.00 47 1014.8
20260901055810 86 111 2.0 8.0 0.00 0.00 0.00 47 1014.7
20260901055254 86 126 2.0 9.0 0.00 0.00 0.00 47 1014.8
20260901054752 86 109 3.0 9.0 0.00 0.00 0.00 46 1014.8
20260901054740 86 139 3.0 7.0 0.00 0.00 0.00 46 1014.7
20260901053742 86 139 3.0 9.0 0.00 0.00 0.00 46 1014.6
20260901053737 86 145 3.0 9.0 0.00 0.00 0.00 46 1014.6
20260901052728 86 124 2.0 7.0 0.00 0.00 0.00 46 1014.4
20260901052220 86 132 1.0 7.0 0.00 0.00 0.00 46 1014.4
20260901051712 86 118 2.0 7.0 0.00 0.00 0.00 46 1014.3
20260901051213 86 132 3.0 6.0 0.00 0.00 0.00 45 1014.3
20260901051209 87 120 3.0 7.0 0.00 0.00 0.00 46 1014.3
20260901050202 87 133 3.0 6.0 0.00 0.00 0.00 45 1014.3
20260901050157 87 128 2.0 6.0 0.00 0.00 0.00 45 1014.3
20260901045647 87 120 2.0 6.0 0.00 0.00 0.00 44 1014.3
20260901045137 87 130 2.0 6.0 0.00 0.00 0.00 45 1014.2
20260901044123 87 125 3.0 7.0 0.00 0.00 0.00 44 1014.2
20260901043613 87 137 3.0 7.0 0.00 0.00 0.00 43 1014.2
20260901043102 87 131 3.0 6.0 0.00 0.00 0.00 44 1014.3
20260901042552 87 129 3.0 7.0 0.00 0.00 0.00 44 1014.3
20260901042543 87 139 3.0 7.0 0.00 0.00 0.00 43 1014.2
20260901041533 87 124 2.0 7.0 0.00 0.00 0.00 43 1014.3
20260901041514 87 140 2.0 6.0 0.00 0.00 0.00 42 1014.3
20260901040502 87 139 2.0 7.0 0.00 0.00 0.00 42 1014.3
20260901035952 87 132 3.0 7.0 0.00 0.00 0.00 42 1014.3
20260901035434 87 132 3.0 7.0 0.00 0.00 0.00 41 1014.3
20260901034925 88 132 2.0 7.0 0.00 0.00 0.00 41 1014.3
20260901034907 88 137 2.0 6.0 0.00 0.00 0.00 41 1014.3
20260901033856 88 130 2.0 6.0 0.00 0.00 0.00 41 1014.3
20260901033345 88 128 1.0 4.0 0.00 0.00 0.00 40 1014.3
20260901033328 89 123 1.0 4.0 0.00 0.00 0.00 39 1014.3
20260901032933 89 124 1.0 4.0 0.00 0.00 0.00 40 1014.3
20260901031814 89 134 1.0 6.0 0.00 0.00 0.00 39 1014.3
20260901031304 89 131 2.0 6.0 0.00 0.00 0.00 39 1014.3
20260901030754 90 134 1.0 5.0 0.00 0.00 0.00 38 1014.2
20260901030745 90 127 1.0 3.0 0.00 0.00 0.00 38 1014.1
20260901025732 90 123 2.0 6.0 0.00 0.00 0.00 37 1014.1
20260901025215 90 145 2.0 6.0 0.00 0.00 0.00 37 1014.0
20260901024704 90 135 2.0 5.0 0.00 0.00 0.00 37 1014.0
20260901024655 91 135 3.0 7.0 0.00 0.00 0.00 36 1013.9
20260901023644 91 122 3.0 7.0 0.00 0.00 0.00 36 1013.9
20260901023134 91 133 2.0 5.0 0.00 0.00 0.00 37 1013.8
20260901023126 91 139 2.0 7.0 0.00 0.00 0.00 37 1013.8
20260901022114 92 136 2.0 7.0 0.00 0.00 0.00 36 1013.7
20260901021604 92 138 2.0 5.0 0.00 0.00 0.00 36 1013.7
20260901021538 92 151 1.0 7.0 0.00 0.00 0.00 36 1013.6
20260901021140 92 155 2.0 7.0 0.00 0.00 0.00 36 1013.6
20260901020022 92 130 1.0 3.0 0.00 0.00 0.00 36 1013.5
20260901020014 93 129 2.0 5.0 0.00 0.00 0.00 36 1013.4
20260901015002 93 140 2.0 5.0 0.00 0.00 0.00 36 1013.4
20260901014453 93 110 2.0 6.0 0.00 0.00 0.00 35 1013.3
20260901013940 94 135 2.0 6.0 0.00 0.00 0.00 35 1013.3
20260901013430 94 141 2.0 6.0 0.00 0.00 0.00 34 1013.2
20260901012920 94 130 3.0 7.0 0.00 0.00 0.00 34 1013.3
20260901012911 94 135 3.0 7.0 0.00 0.00 0.00 34 1013.3
20260901012400 94 155 3.0 8.0 0.00 0.00 0.00 34 1013.2
20260901011350 94 127 3.0 8.0 0.00 0.00 0.00 33 1013.3
20260901010840 95 141 2.0 8.0 0.00 0.00 0.00 33 1013.2
20260901010331 95 148 3.0 8.0 0.00 0.00 0.00 33 1013.1
20260901005820 95 141 2.0 7.0 0.00 0.00 0.00 32 1013.1
20260901005811 95 93 2.0 7.0 0.00 0.00 0.00 32 1013.1
20260901004801 96 139 2.0 7.0 0.00 0.00 0.00 32 1013.1
20260901004250 96 122 3.0 7.0 0.00 0.00 0.00 31 1013.1
20260901004237 96 118 3.0 8.0 0.00 0.00 0.00 32 1013.0
20260901003728 96 156 3.0 9.0 0.00 0.00 0.00 32 1013.1
20260901002726 96 113 4.0 10.0 0.00 0.00 0.00 31 1013.0
20260901002314 96 126 3.0 11.0 0.00 0.00 0.00 32 1013.0
20260901002216 96 148 4.0 10.0 0.00 0.00 0.00 32 1013.1
20260901002208 97 132 3.0 11.0 0.00 0.00 0.00 31 1013.1
20260901000656 97 148 3.0 11.0 0.00 0.00 0.00 31 1013.1
20260901000147 97 141 2.0 7.0 0.00 0.00 0.00 32 1013.0
20260831235636 97 161 3.0 9.0 0.00 0.00 0.00 30 1013.0
20260831235126 97 106 4.0 12.0 0.00 0.00 0.00 31 1013.1
20260831234619 97 139 4.0 12.0 0.00 0.00 0.00 30 1013.1
20260831234110 98 145 4.0 10.0 0.00 0.00 0.00 30 1013.1
20260831233558 98 78 5.0 13.0 0.00 0.00 0.00 31 1013.1
20260831233048 98 124 6.0 13.0 0.00 0.00 0.00 30 1013.1
20260831233039 98 118 6.0 16.0 0.00 0.00 0.00 30 1013.1
20260831232030 98 164 6.0 16.0 0.00 0.00 0.00 31 1013.1
20260831231521 98 128 6.0 12.0 0.00 0.00 0.00 31 1013.0
20260831231057 99 123 4.0 9.0 0.00 0.00 0.00 30 1013.1
20260831231010 98 145 4.0 12.0 0.00 0.00 0.00 30 1013.1
20260831230953 99 87 5.0 10.0 0.00 0.00 0.00 31 1013.1
20260831225442 98 108 5.0 12.0 0.00 0.00 0.00 31 1013.1
20260831224941 99 85 5.0 12.0 0.00 0.00 0.00 30 1013.1
20260831224441 99 80 5.0 13.0 0.00 0.00 0.00 30 1013.2
20260831223932 99 87 6.0 14.0 0.00 0.00 0.00 30 1013.2
20260831223420 99 191 6.0 14.0 0.00 0.00 0.00 30 1013.2
20260831222917 100 138 5.0 14.0 0.00 0.00 0.00 30 1013.2
20260831222912 100 194 5.0 13.0 0.00 0.00 0.00 30 1013.2
20260831221910 99 135 5.0 10.0 0.00 0.00 0.00 30 1013.2
20260831221402 100 88 4.0 10.0 0.00 0.00 0.00 31 1013.2
20260831220855 100 92 4.0 11.0 0.00 0.00 0.00 30 1013.3
20260831220350 99 99 4.0 11.0 0.00 0.00 0.00 30 1013.3
20260831215844 99 85 4.0 13.0 0.00 0.00 0.00 29 1013.4
20260831215330 100 103 5.0 13.0 0.00 0.00 0.00 29 1013.5
20260831214824 99 126 5.0 14.0 0.00 0.00 0.00 30 1013.6
20260831214316 100 160 6.0 14.0 0.00 0.00 0.00 30 1013.6
20260831213805 100 133 5.0 13.0 0.00 0.00 0.00 30 1013.6
20260831213755 98 139 6.0 16.0 0.00 0.00 0.00 30 1013.7
20260831213359 99 141 5.0 11.0 0.00 0.00 0.00 31 1013.7
20260831212247 99 147 5.0 16.0 0.00 0.00 0.00 31 1013.8
20260831211739 98 168 5.0 11.0 0.00 0.00 0.00 32 1013.8
20260831211233 97 163 5.0 10.0 0.00 0.00 0.00 32 1013.9
20260831210730 98 226 5.0 10.0 0.00 0.00 0.00 31 1013.9
20260831210223 98 159 6.0 14.0 0.00 0.00 0.00 30 1014.0
20260831205717 99 167 7.0 15.0 0.00 0.00 0.00 30 1014.1
20260831205210 100 115 8.0 16.0 0.00 0.00 0.00 29 1014.1
20260831204659 101 142 7.0 16.0 0.00 0.00 0.00 29 1014.2
20260831204152 101 162 5.0 12.0 0.00 0.00 0.00 30 1014.2
20260831203649 99 86 4.0 11.0 0.00 0.00 0.00 31 1014.3
20260831203143 99 132 5.0 11.0 0.00 0.00 0.00 31 1014.4
20260831202633 100 172 5.0 13.0 0.00 0.00 0.00 30 1014.5
20260831202133 101 127 5.0 13.0 0.00 0.00 0.00 29 1014.6
20260831201624 100 214 4.0 12.0 0.00 0.00 0.00 31 1014.6
20260831201105 99 147 5.0 11.0 0.00 0.00 0.00 31 1014.7
20260831200556 98 157 5.0 11.0 0.00 0.00 0.00 31 1014.8
20260831200046 100 119 5.0 14.0 0.00 0.00 0.00 31 1014.8
20260831195535 101 194 5.0 13.0 0.00 0.00 0.00 30 1014.8
20260831195527 100 143 5.0 12.0 0.00 0.00 0.00 31 1014.9
20260831194516 100 150 6.0 14.0 0.00 0.00 0.00 32 1014.9
20260831194005 100 125 7.0 14.0 0.00 0.00 0.00 32 1015.0
20260831193455 99 134 5.0 15.0 0.00 0.00 0.00 33 1015.1
20260831192945 100 93 5.0 15.0 0.00 0.00 0.00 32 1015.2
20260831192443 98 207 7.0 16.0 0.00 0.00 0.00 33 1015.3
20260831192434 99 107 5.0 16.0 0.00 0.00 0.00 32 1015.3
20260831191423 100 142 5.0 13.0 0.00 0.00 0.00 31 1015.3
20260831190913 99 83 6.0 14.0 0.00 0.00 0.00 32 1015.4
20260831190359 100 130 6.0 14.0 0.00 0.00 0.00 33 1015.4
20260831185849 99 120 5.0 17.0 0.00 0.00 0.00 34 1015.4
20260831185339 98 111 6.0 17.0 0.00 0.00 0.00 35 1015.4
20260831184829 98 74 7.0 18.0 0.00 0.00 0.00 35 1015.6
20260831184319 99 88 6.0 18.0 0.00 0.00 0.00 34 1015.6
20260831183801 98 138 7.0 18.0 0.00 0.00 0.00 36 1015.7
20260831183243 99 148 8.0 18.0 0.00 0.00 0.00 34 1015.7
20260831182723 100 209 6.0 17.0 0.00 0.00 0.00 34 1015.7
20260831182214 100 205 5.0 14.0 0.00 0.00 0.00 34 1015.8
20260831182204 98 134 6.0 14.0 0.00 0.00 0.00 35 1015.9
20260831181154 99 161 5.0 13.0 0.00 0.00 0.00 36 1016.1
20260831180643 98 178 5.0 15.0 0.00 0.00 0.00 35 1016.2
20260831180134 98 187 8.0 15.0 0.00 0.00 0.00 36 1016.4
20260831175623 97 179 7.0 14.0 0.00 0.00 0.00 36 1016.5
20260831175614 98 161 5.0 14.0 0.00 0.00 0.00 36 1016.6
20260831174601 97 169 5.0 12.0 0.00 0.00 0.00 36 1016.7
20260831174051 98 214 5.0 13.0 0.00 0.00 0.00 38 1016.8
20260831173539 96 142 5.0 13.0 0.00 0.00 0.00 37 1016.9
20260831173029 97 191 4.0 10.0 0.00 0.00 0.00 36 1016.9
20260831172519 97 168 5.0 10.0 0.00 0.00 0.00 38 1017.0
20260831172459 96 149 5.0 10.0 0.00 0.00 0.00 37 1017.0
20260831172104 97 141 5.0 10.0 0.00 0.00 0.00 38 1017.0
20260831170947 97 256 5.0 14.0 0.00 0.00 0.00 38 1017.1
20260831170437 97 193 5.0 14.0 0.00 0.00 0.00 39 1017.1
20260831165927 96 234 6.0 13.0 0.00 0.00 0.00 40 1017.2
20260831165918 95 162 6.0 13.0 0.00 0.00 0.00 39 1017.2
20260831164859 94 178 5.0 13.0 0.00 0.00 0.00 39 1017.2
20260831164851 95 165 4.0 13.0 0.00 0.00 0.00 40 1017.1
20260831164501 96 219 4.0 10.0 0.00 0.00 0.00 40 1017.0
20260831164332 95 203 4.0 11.0 0.00 0.00 0.00 41 1017.1
20260831162820 95 303 5.0 12.0 0.00 0.00 0.00 41 1017.2
20260831162809 94 204 5.0 12.0 0.00 0.00 0.00 42 1017.2
20260831161756 93 151 5.0 10.0 0.00 0.00 0.00 41 1017.2
20260831161247 93 160 4.0 11.0 0.00 0.00 0.00 41 1017.2
20260831160738 93 121 4.0 9.0 0.00 0.00 0.00 43 1017.1
20260831160227 93 262 4.0 9.0 0.00 0.00 0.00 44 1017.1
20260831155709 92 148 3.0 8.0 0.00 0.00 0.00 43 1017.1
20260831155159 92 112 3.0 7.0 0.00 0.00 0.00 43 1017.2
20260831154652 93 219 4.0 7.0 0.00 0.00 0.00 45 1017.2
20260831154141 91 262 3.0 12.0 0.00 0.00 0.00 45 1017.2
20260831153632 91 267 3.0 8.0 0.00 0.00 0.00 46 1017.1
20260831153119 91 232 3.0 8.0 0.00 0.00 0.00 47 1017.1
20260831153110 92 252 3.0 8.0 0.00 0.00 0.00 46 1017.1
20260831152724 91 226 2.0 10.0 0.00 0.00 0.00 49 1017.1
20260831152551 91 245 2.0 10.0 0.00 0.00 0.00 49 1017.1
20260831151039 89 235 3.0 10.0 0.00 0.00 0.00 51 1017.0
20260831150529 88 262 4.0 14.0 0.00 0.00 0.00 51 1017.0
20260831150021 89 215 4.0 14.0 0.00 0.00 0.00 51 1017.0
20260831145512 89 251 4.0 10.0 0.00 0.00 0.00 51 1017.0
20260831145503 88 262 4.0 9.0 0.00 0.00 0.00 53 1017.0
20260831144452 87 234 3.0 9.0 0.00 0.00 0.00 55 1016.9
20260831143941 87 218 3.0 9.0 0.00 0.00 0.00 56 1016.8
20260831143932 87 249 2.0 9.0 0.00 0.00 0.00 58 1016.8
20260831142921 86 248 2.0 9.0 0.00 0.00 0.00 59 1016.8
20260831142912 85 213 2.0 7.0 0.00 0.00 0.00 61 1016.8
20260831141901 85 175 3.0 10.0 0.00 0.00 0.00 62 1016.8
20260831141352 84 244 3.0 10.0 0.00 0.00 0.00 63 1016.9
20260831140842 84 151 2.0 10.0 0.00 0.00 0.00 63 1016.8
20260831140334 83 246 2.0 8.0 0.00 0.00 0.00 65 1016.9
20260831140325 83 216 3.0 10.0 0.00 0.00 0.00 65 1016.9
20260831135318 82 212 4.0 10.0 0.00 0.00 0.00 66 1016.8
20260831134809 81 219 3.0 13.0 0.00 0.00 0.00 66 1016.8
20260831134304 81 201 3.0 13.0 0.00 0.00 0.00 67 1016.7
20260831134255 80 197 3.0 10.0 0.00 0.00 0.00 69 1016.7
20260831133247 80 257 3.0 10.0 0.00 0.00 0.00 70 1016.6
20260831132742 79 208 3.0 10.0 0.00 0.00 0.00 70 1016.5
20260831132240 79 186 3.0 9.0 0.00 0.00 0.00 70 1016.4
20260831131732 79 189 4.0 12.0 0.00 0.00 0.00 70 1016.4
20260831131229 79 213 4.0 12.0 0.00 0.00 0.00 70 1016.2
20260831130722 79 236 2.0 8.0 0.00 0.00 0.00 70 1016.2
20260831130219 79 198 3.0 8.0 0.00 0.00 0.00 70 1015.9
20260831125714 79 267 4.0 11.0 0.00 0.00 0.00 70 1015.8
20260831125705 79 199 4.0 11.0 0.00 0.00 0.00 70 1015.8
20260831124655 79 199 4.0 12.0 0.00 0.00 0.00 70 1015.8
20260831124143 79 204 4.0 10.0 0.00 0.00 0.00 70 1015.7
20260831123642 79 188 4.0 10.0 0.00 0.00 0.00 70 1015.6
20260831123637 79 184 3.0 10.0 0.00 0.00 0.00 70 1015.6
20260831122630 79 202 4.0 12.0 0.00 0.00 0.00 69 1015.6
20260831122125 79 215 4.0 12.0 0.00 0.00 0.00 69 1015.5
20260831121619 79 218 4.0 9.0 0.00 0.00 0.00 69 1015.5
20260831121118 79 193 5.0 12.0 0.00 0.00 0.00 68 1015.4
20260831120614 79 183 4.0 12.0 0.00 0.00 0.00 68 1015.3
20260831120109 79 209 4.0 10.0 0.00 0.00 0.00 68 1015.3
20260831115605 79 267 3.0 8.0 0.00 0.00 0.00 67 1015.3
20260831115600 79 172 3.0 10.0 0.00 0.00 0.00 68 1015.3
20260831114551 79 178 4.0 8.0 0.00 0.00 0.00 67 1015.2
20260831114049 79 224 3.0 9.0 0.00 0.00 0.00 67 1015.1
20260831113549 79 219 3.0 9.0 0.00 0.00 0.00 67 1015.0
20260831113046 80 186 3.0 8.0 0.00 0.00 0.00 66 1015.0
20260831112540 80 171 3.0 8.0 0.00 0.00 0.00 66 1014.9
20260831112028 80 172 3.0 9.0 0.00 0.00 0.00 66 1014.9
20260831111522 80 197 3.0 9.0 0.00 0.00 0.00 66 1014.8
20260831111015 80 209 3.0 8.0 0.00 0.00 0.00 66 1014.8
20260831110507 80 237 3.0 10.0 0.00 0.00 0.00 66 1014.7
20260831105958 80 187 4.0 10.0 0.00 0.00 0.00 65 1014.7
20260831105947 80 199 3.0 9.0 0.00 0.00 0.00 65 1014.8
20260831104945 80 174 3.0 9.0 0.00 0.00 0.00 65 1014.8
20260831104436 80 221 4.0 10.0 0.00 0.00 0.00 65 1014.8
20260831103927 80 178 4.0 10.0 0.00 0.00 0.00 64 1014.7
20260831103416 80 155 3.0 9.0 0.00 0.00 0.00 64 1014.7
20260831102908 80 212 3.0 8.0 0.00 0.00 0.00 64 1014.7
20260831102405 81 267 3.0 8.0 0.00 0.00 0.00 64 1014.8
20260831101906 81 267 2.0 9.0 0.00 0.00 0.00 63 1014.6
20260831101901 81 267 3.0 9.0 0.00 0.00 0.00 63 1014.7
20260831100901 81 170 3.0 9.0 0.00 0.00 0.00 63 1014.7
20260831100400 81 201 3.0 9.0 0.00 0.00 0.00 63 1014.6
20260831095859 81 203 3.0 9.0 0.00 0.00 0.00 63 1014.6
20260831095400 81 199 3.0 9.0 0.00 0.00 0.00 62 1014.6
20260831094851 81 224 3.0 9.0 0.00 0.00 0.00 62 1014.6
20260831094841 81 157 3.0 9.0 0.00 0.00 0.00 62 1014.7
20260831093831 81 162 4.0 9.0 0.00 0.00 0.00 62 1014.7
20260831093320 82 184 3.0 9.0 0.00 0.00 0.00 61 1014.7
20260831092811 82 199 2.0 9.0 0.00 0.00 0.00 61 1014.6
20260831092258 82 173 3.0 8.0 0.00 0.00 0.00 61 1014.6
20260831091749 82 211 3.0 8.0 0.00 0.00 0.00 61 1014.6
20260831091238 82 180 4.0 9.0 0.00 0.00 0.00 60 1014.6
20260831091230 82 161 4.0 10.0 0.00 0.00 0.00 60 1014.5
20260831090218 82 185 4.0 10.0 0.00 0.00 0.00 59 1014.4
20260831085709 82 170 4.0 7.0 0.00 0.00 0.00 59 1014.4
20260831085158 82 195 3.0 7.0 0.00 0.00 0.00 58 1014.4
20260831084649 82 188 3.0 7.0 0.00 0.00 0.00 58 1014.4
20260831084138 82 204 3.0 7.0 0.00 0.00 0.00 58 1014.4
20260831083628 82 224 2.0 8.0 0.00 0.00 0.00 57 1014.4
20260831083118 82 207 3.0 8.0 0.00 0.00 0.00 57 1014.3
20260831082608 82 235 3.0 8.0 0.00 0.00 0.00 56 1014.2
20260831082058 83 224 3.0 9.0 0.00 0.00 0.00 56 1014.3